TimeEST,TemperatureF,Dew PointF,Humidity,Sea Level PressureIn,VisibilityMPH,Wind Direction,Wind SpeedMPH,Gust SpeedMPH,PrecipitationIn,Events,Conditions,WindDirDegrees,DateUTC
12:39 AM,23.0,19.4,86,30.09,6.0,SSW,6.9,-,0.00,,Overcast,210,2013-01-26 05:39:00
12:54 AM,23.0,19.9,88,30.13,4.0,SW,8.1,-,0.00,Snow,Light Snow,220,2013-01-26 05:54:00
1:43 AM,24.8,19.4,80,30.10,3.0,SW,5.8,-,0.00,Snow,Light Snow,230,2013-01-26 06:43:00
1:54 AM,24.1,19.9,84,30.13,4.0,SW,4.6,-,0.00,Snow,Light Snow,230,2013-01-26 06:54:00
2:10 AM,24.8,21.2,86,30.10,4.0,SSW,3.5,-,0.00,Snow,Light Snow,200,2013-01-26 07:10:00
2:54 AM,24.1,19.9,84,30.14,5.0,SSW,3.5,-,0.00,,Overcast,210,2013-01-26 07:54:00
3:54 AM,25.0,19.9,81,30.14,7.0,SW,4.6,-,N/A,,Overcast,230,2013-01-26 08:54:00
4:54 AM,26.1,21.0,81,30.14,8.0,WSW,5.8,-,N/A,,Overcast,250,2013-01-26 09:54:00
5:54 AM,26.1,21.0,81,30.15,6.0,WSW,5.8,-,N/A,,Haze,240,2013-01-26 10:54:00
6:54 AM,26.1,21.0,81,30.17,6.0,West,4.6,-,N/A,,Haze,260,2013-01-26 11:54:00
7:45 AM,26.6,21.2,80,30.16,7.0,WSW,4.6,-,N/A,,Overcast,250,2013-01-26 12:45:00
7:54 AM,26.1,21.0,81,30.20,6.0,West,4.6,-,N/A,,Haze,270,2013-01-26 12:54:00
8:54 AM,26.1,21.0,81,30.23,5.0,West,5.8,-,N/A,,Haze,280,2013-01-26 13:54:00
9:54 AM,27.0,21.0,78,30.26,3.0,WNW,6.9,-,0.00,,Haze,300,2013-01-26 14:54:00
10:03 AM,26.6,21.2,80,30.22,4.0,NW,8.1,-,N/A,,Haze,310,2013-01-26 15:03:00
10:42 AM,26.6,21.2,80,30.24,2.5,WNW,6.9,-,0.00,Snow,Light Snow,300,2013-01-26 15:42:00
10:52 AM,28.4,21.2,74,30.25,4.0,NW,5.8,-,0.00,,Haze,310,2013-01-26 15:52:00
10:54 AM,28.0,21.0,75,30.28,4.0,NW,6.9,-,0.00,,Haze,310,2013-01-26 15:54:00
11:54 AM,28.0,19.0,69,30.30,8.0,NW,10.4,-,N/A,,Overcast,320,2013-01-26 16:54:00
12:04 PM,28.4,19.4,69,30.27,9.0,NW,10.4,-,N/A,,Overcast,320,2013-01-26 17:04:00
12:47 PM,28.4,17.6,64,30.28,10.0,NW,6.9,-,N/A,,Overcast,320,2013-01-26 17:47:00
12:54 PM,28.0,17.1,63,30.32,10.0,NW,9.2,-,N/A,,Overcast,310,2013-01-26 17:54:00
1:50 PM,28.4,15.8,59,30.28,10.0,NNW,9.2,-,N/A,,Overcast,340,2013-01-26 18:50:00
1:54 PM,28.0,17.1,63,30.31,10.0,NNW,8.1,-,N/A,,Overcast,340,2013-01-26 18:54:00
2:36 PM,28.4,15.8,59,30.28,10.0,NW,8.1,-,N/A,,Overcast,320,2013-01-26 19:36:00
2:54 PM,28.0,16.0,61,30.32,10.0,WNW,8.1,-,N/A,,Overcast,300,2013-01-26 19:54:00
3:54 PM,27.0,15.1,61,30.35,10.0,NNW,9.2,-,N/A,,Overcast,330,2013-01-26 20:54:00
4:54 PM,27.0,15.1,61,30.37,10.0,NW,5.8,-,N/A,,Overcast,320,2013-01-26 21:54:00
5:54 PM,26.1,15.1,63,30.39,10.0,NNW,5.8,-,N/A,,Overcast,330,2013-01-26 22:54:00
6:54 PM,26.1,15.1,63,30.42,10.0,NNW,5.8,-,N/A,,Overcast,340,2013-01-26 23:54:00
7:54 PM,25.0,14.0,63,30.44,10.0,NNW,6.9,-,N/A,,Overcast,330,2013-01-27 00:54:00
8:38 PM,24.8,14.0,64,30.41,10.0,NNW,6.9,-,N/A,,Overcast,330,2013-01-27 01:38:00
8:54 PM,25.0,14.0,63,30.45,10.0,NNW,8.1,-,N/A,,Overcast,330,2013-01-27 01:54:00
9:54 PM,24.1,12.0,60,30.46,10.0,Calm,Calm,-,N/A,,Overcast,0,2013-01-27 02:54:00
10:22 PM,24.8,10.4,54,30.43,10.0,Calm,Calm,-,N/A,,Overcast,0,2013-01-27 03:22:00
10:54 PM,21.9,10.9,63,30.47,10.0,NE,3.5,-,N/A,,Mostly Cloudy,50,2013-01-27 03:54:00
11:54 PM,16.0,9.0,74,30.48,10.0,Calm,Calm,-,N/A,,Clear,0,2013-01-27 04:54:00